Location: Newark
(33.4453°N, 112.0669°W)
Time: 07:09:03
(UTC+00:00)

LightSail 2 - Pass Details

Date: 24 January 2020
Orbit: 699 x 722 km, 24.0° (Epoch: 20 February)

Event Time Altitude Azimuth Distance (km) Brightness Sun altitude
Rises 01:39:07 0° 250° (WSW) 3,075 10.7 -10.3°
Reaches altitude 10° 01:41:49 10° 239° (WSW) 2,161 9.0 -10.9°
Maximum altitude 01:46:09 28° 181° (S) 1,299 6.7 -11.7°
Drops below altitude 10° 01:50:31 10° 122° (ESE) 2,176 7.3 -12.6°
Enters shadow 01:51:03 - 119° (ESE) 2,349 7.4 -12.7°
